This demonstration page uses our WeatherBlox Daily Observations layout. Learn more.

Left ArrowRight Arrow

40.92945, -100.16068

Hourly Observations for June 12, 2016

Temp ( °F °C ) Dew Point ( °F °C ) Humidity (%) Winds ( mph kmh ) Pressure ( in mb ) Visibility ( mi km ) Precip ( " mm )
12:15 am 00:15 Clear 79 26.1 62 16.6 56 56 SSE 13 20 29.85 1011 10 16 N/A
12:35 am 00:35 Clear 78 25.7 62 16.7 58 58 SSE 14 22 29.85 1011 10 16 N/A
12:55 am 00:55 Clear 78 25.5 62 16.6 58 58 SSE 13 20 29.88 1012 10 16 N/A
1:15 am 01:15 Clear 78 25.3 62 16.7 59 59 SSE 15 24 29.88 1012 10 16 N/A
1:35 am 01:35 Clear 77 25 62 16.7 60 60 SSE 13 20 29.88 1012 10 16 N/A
1:55 am 01:55 Clear 76 24.6 62 16.7 62 62 S 13 20 29.88 1012 10 16 N/A
2:15 am 02:15 Clear 76 24.7 62 16.5 60 60 S 15 24 29.85 1011 10 16 N/A
2:35 am 02:35 Clear 77 24.8 62 16.5 60 60 S 13 20 29.85 1011 10 16 N/A
2:55 am 02:55 Clear 76 24.3 62 16.6 62 62 SSE 12 19 29.85 1011 10 16 N/A
3:15 am 03:15 Clear 74 23.5 62 16.6 65 65 S 12 19 29.85 1011 10 16 N/A
3:35 am 03:35 Clear 74 23.1 62 16.7 67 67 S 10 17 29.85 1011 10 16 N/A
3:55 am 03:55 Clear 73 22.5 62 16.7 70 70 SSE 10 17 29.88 1012 10 16 N/A
4:15 am 04:15 Clear 73 22.5 62 16.7 70 70 SSE 8 13 29.91 1013 10 16 N/A
4:35 am 04:35 Clear 71 21.6 62 16.7 74 74 SSE 8 13 29.91 1013 10 16 N/A
4:55 am 04:55 Clear 70 21 62 16.6 76 76 SSE 6 9 29.91 1013 10 16 N/A
5:15 am 05:15 Clear 69 20.7 62 16.7 78 78 SE 6 9 29.91 1013 10 16 N/A
5:35 am 05:35 Clear 69 20.3 62 16.6 79 79 SE 5 7 29.91 1013 10 16 N/A
5:55 am 05:55 Clear 67 19.5 61 16.3 82 82 SE 8 13 29.94 1014 10 16 N/A
6:15 am 06:15 Sunny 68 20 62 16.7 81 81 SE 8 13 29.91 1013 10 16 N/A
6:35 am 06:35 Sunny 69 20.5 62 16.7 79 79 SE 6 9 29.91 1013 10 16 N/A
6:55 am 06:55 Sunny 69 20.5 63 17 80 80 SSE 7 11 29.94 1014 10 16 N/A
7:15 am 07:15 Sunny 70 21 63 17 78 78 SSE 5 7 29.94 1014 10 16 N/A
7:35 am 07:35 Sunny 71 21.8 63 17.2 75 75 S 7 11 29.94 1014 10 16 N/A
7:55 am 07:55 Sunny 73 22.5 63 17.3 73 73 S 8 13 29.94 1014 10 16 N/A
8:15 am 08:15 Sunny 74 23.4 63 17.4 69 69 S 9 15 29.94 1014 10 16 N/A
8:35 am 08:35 Sunny 75 24 63 17.4 67 67 S 8 13 29.91 1013 10 16 N/A
8:55 am 08:55 Sunny 77 24.8 64 17.5 64 64 S 10 17 29.91 1013 10 16 N/A
9:15 am 09:15 Sunny 78 25.6 64 17.7 62 62 S 13 20 29.91 1013 10 16 N/A
9:35 am 09:35 Sunny 78 25.8 64 17.7 61 61 S 15 24 29.91 1013 10 16 N/A
9:55 am 09:55 Sunny 80 26.7 64 18 59 59 SSW 13 20 29.91 1013 10 16 N/A
10:15 am 10:15 Sunny 81 27 64 17.7 57 57 SSW 14 22 29.91 1013 10 16 N/A
10:35 am 10:35 Sunny 82 27.7 65 18.1 56 56 SSW 13 20 29.88 1012 10 16 N/A
10:55 am 10:55 Sunny 83 28.2 65 18.1 54 54 SSW 14 22 29.88 1012 10 16 N/A
11:15 am 11:15 Sunny 85 29.3 65 18.3 52 52 S 12 19 29.88 1012 10 16 N/A
11:35 am 11:35 Sunny 85 29.7 65 18.2 50 50 S 14 22 29.88 1012 10 16 N/A
11:55 am 11:55 Sunny 87 30.6 64 17.9 47 47 S 15 24 29.88 1012 10 16 N/A
12:15 pm 12:15 Sunny 88 30.9 63 17.1 44 44 S 16 26 29.85 1011 10 16 N/A
12:35 pm 12:35 Sunny 89 31.7 62 16.9 41 41 S 16 26 29.85 1011 10 16 N/A
12:55 pm 12:55 Sunny 89 31.7 62 16.6 40 40 S 14 22 29.85 1011 10 16 N/A
1:15 pm 13:15 Sunny 90 32.4 62 16.8 39 39 S 14 22 29.85 1011 10 16 N/A
1:35 pm 13:35 Sunny 91 32.6 61 16.3 38 38 S 15 24 29.85 1011 10 16 N/A
1:55 pm 13:55 Sunny 91 32.8 61 16.2 37 37 SSW 16 26 29.85 1011 10 16 N/A
2:15 pm 14:15 Sunny 91 32.8 61 15.9 36 36 S 15 24 29.83 1010 10 16 N/A
2:35 pm 14:35 Sunny 92 33.4 60 15.7 34 34 S 13 20 29.83 1010 10 16 N/A
2:55 pm 14:55 Sunny 92 33.5 60 15.4 34 34 S 13 20 29.83 1010 10 16 N/A
3:15 pm 15:15 Sunny 93 33.9 60 15.7 34 34 SSE 14 22 29.83 1010 10 16 N/A
3:35 pm 15:35 Partly Cloudy 92 33.3 60 15.5 34 34 S 13 20 29.80 1009 10 16 N/A
3:55 pm 15:55 Sunny 94 34.2 60 15.8 33 33 SSE 16 26 29.77 1008 10 16 N/A
4:15 pm 16:15 Sunny 92 33.6 60 15.8 34 34 S 15 24 29.80 1009 10 16 N/A
4:35 pm 16:35 Sunny 93 33.8 59 15 32 32 S 15 24 29.80 1009 10 16 N/A
4:55 pm 16:55 Sunny 92 33.4 60 15.3 34 34 S 14 22 29.80 1009 10 16 N/A
5:15 pm 17:15 Partly Cloudy 91 32.8 59 15.2 35 35 S 13 20 29.83 1010 10 16 N/A
5:35 pm 17:35 Partly Cloudy 92 33.5 60 15.3 33 33 SSW 10 17 29.83 1010 10 16 N/A
5:55 pm 17:55 Sunny 92 33.5 59 14.9 33 33 SSW 13 20 29.83 1010 10 16 N/A
6:15 pm 18:15 Sunny 90 32.1 59 15.1 36 36 S 10 17 29.83 1010 7 11 N/A
6:35 pm 18:35 Hazy 89 31.8 61 16.1 39 39 SSW 6 9 29.83 1010 3 5 N/A
6:55 pm 18:55 Sunny 89 31.5 61 16.3 40 40 S 7 11 29.83 1010 10 16 N/A
7:15 pm 19:15 Sunny 88 31 62 16.8 42 42 S 5 7 29.83 1010 10 16 N/A
7:35 pm 19:35 Partly Cloudy 80 26.5 58 14.3 47 47 NNW 25 41 29.91 1013 10 16 N/A
7:55 pm 19:55 Mostly Cloudy 78 25.8 56 13.2 46 46 NNW 13 20 29.91 1013 10 16 N/A
8:15 pm 20:15 Sunny 78 25.3 56 13.5 48 48 NNW 13 20 29.91 1013 10 16 N/A
8:35 pm 20:35 Sunny 77 25 56 13.3 48 48 N 15 24 29.91 1013 10 16 N/A
8:55 pm 20:55 Sunny 76 24.7 56 13.3 49 49 N 12 19 29.91 1013 10 16 N/A
9:15 pm 21:15 Clear 76 24.2 56 13.5 51 51 WNW 5 7 29.91 1013 10 16 N/A
9:35 pm 21:35 Partly Cloudy 74 23.5 57 14.1 56 56 N 5 7 29.94 1014 10 16 N/A
9:55 pm 21:55 Clear 73 22.6 58 14.5 60 60 Calm 29.94 1014 10 16 N/A
10:15 pm 22:15 Clear 73 22.6 58 14.6 61 61 E 6 9 29.94 1014 10 16 N/A
10:35 pm 22:35 Clear 74 23.1 58 14.6 59 59 S 6 9 29.94 1014 10 16 N/A
10:55 pm 22:55 Clear 73 22.7 59 15 62 62 Calm 29.94 1014 10 16 N/A
11:15 pm 23:15 Clear 73 22.8 58 14.7 60 60 NW 9 15 29.94 1014 10 16 N/A
11:35 pm 23:35 Clear 73 22.8 58 14.5 60 60 NNE 6 9 29.94 1014 10 16 N/A
11:55 pm 23:55 Clear 72 22.2 58 14.6 62 62 NNE 5 7 29.94 1014 10 16 N/A

Powered by AerisWeather